{"data":{"norad_id":69012,"epoch":"2026-05-25T04:23:39.479712Z","epoch_age_seconds":58924,"freshness":"FRESH","line1":"1 69012U 26100AJ  26145.18309583  .00003501  00000+0  16331-3 0  9997","line2":"2 69012  97.4065  43.4246 0007145 108.4602 251.7410 15.20490838  3319","mean_motion":15.20490838,"eccentricity":0.0007145,"inclination_deg":97.4065,"raan_deg":43.4246,"arg_perigee_deg":108.4602,"mean_anomaly_deg":251.741,"bstar":0.00016331,"rev_number":331,"period_min":94.706259584841,"perigee_km":499.44148752139,"apogee_km":509.2765743496,"semimajor_km":6882.4960309355,"source":"CELESTRAK","updated_at":"2026-05-25T13:38:09.039710Z"}}